Regional Weather Roundup
Issued by NWS Wakefield, VA

Home | Current Version | Previous Version | Text Only | Print | Product List | Glossary Off
Versions: 1 2 3 4 5 6 7 8 9 10 11 12 13 14 15 16 17 18 19 20 21 22 23 24 25 26 27 28 29 30 31 32 33 34 35 36 37 38 39 40 41 42 43 44 45 46 47 48 49 50

000
ASUS41 KAKQ 250010
RWRAKQ

REGIONAL WEATHER ROUNDUP
NATIONAL WEATHER SERVICE WAKEFIELD VA
800 PM EDT THU JUL 24 2014

Note: "fair" indicates few or no clouds below 12,000 feet with no
significant weather and/or obstructions to visibility. * = Denotes
station may not report precipitation (e.g., rain,snow,etc.),
thunder or fog.

VAZ042-051-052>054-056-250100-
NORTHERN VIRGINIA

CITY           SKY/WX    TMP DP  RH WIND       PRES   REMARKS
WASH NATIONAL  CLOUDY    78  56  46 N14       29.90S
DULLES         CLOUDY    74  56  53 NE10      29.91S
FORT BELVOIR   CLOUDY    74  68  81 VRB1      29.90S
QUANTICO       CLOUDY    72  68  87 NW9       29.91S
FREDERICKSBRG* CLOUDY    71  70  98 CALM      29.90S
STAFFORD*      CLOUDY    69  69 100 CALM      29.95R
WARRENTON      CLOUDY    73  73  98 CALM      29.91S
CULPEPER*      MOCLDY   N/A N/A N/A CALM      29.92S
MANASSAS*      CLEAR     75  64  69 N6        29.91
LEESBURG*      MOCLDY    75  63  64 CALM      29.93R
WINCHESTER     PTCLDY    70  61  73 CALM      29.94S
$$

VAZ048-049-060>072-079>083-250100-
CENTRAL AND SOUTH CENTRAL VIRGINIA...AND NORTH CENTRAL NORTH CAROLINA

CITY           SKY/WX    TMP DP  RH WIND       PRES   REMARKS
RICHMOND       RAIN      70  68  93 N7        29.90S FOG
CHESTERFIELD*  CLOUDY    70  57  64 NE5       29.90F
HANOVER        CLOUDY    69  67  93 CALM      29.92S FOG
TAPPAHANNOCK*  LGT RAIN  70  65  84 CALM      29.91R
CHARLOTTSVILLE LGT RAIN  70  68  93 CALM      29.93S
ORANGE*        MOCLDY    70  66  88 CALM      29.94R
LOUISA*        CLOUDY    68  66  94 CALM      29.91S
FARMVILLE*     CLOUDY    68  66  94 N3        29.91F
SOUTH HILL*    LGT RAIN  70  70 100 CALM      29.95S
ROANOKE RAPIDS HVY RAIN  64  63  94 NE12G25   29.90R
RALEIGH        CLOUDY    73  69  87 N6        29.93R
$$

VAZ088>098-250100-
SOUTHEAST VIRGINIA

CITY           SKY/WX    TMP DP  RH WIND       PRES   REMARKS
NORFOLK        HVY RAIN  75  71  87 NE8       29.88R FOG
VIRGINIA BEACH TSTM      75  72  90 E9        29.87R FOG
NORFOLK NAVAL  TSTM      73  71  93 N20G29    29.90R VSB 1
WEST POINT*    CLOUDY    73  69  89 NE6       29.89F
NEWPORT NEWS   RAIN      74  70  87 NE8       29.90S FOG
LANGLEY AFB    HVY RAIN  72  72 100 N10       29.90R FOG
FORT EUSTIS    LGT RAIN  72  72 100 E8        29.87S
WILLIAMSBURG*  CLOUDY    73  72  94 CALM      29.89F
FRANKLIN*      CLOUDY    72  72 100 N5        29.91R
WAKEFIELD      LGT RAIN  72  69  90 CALM      29.89R FOG
$$

VAZ020-022-025-037-045-250100-
WESTERN AND SOUTHWEST VIRGINIA

CITY           SKY/WX    TMP DP  RH WIND       PRES   REMARKS
STAUNTON*      CLOUDY    70  64  82 CALM      29.98R
HOT SPRINGS VA CLOUDY    61  59  94 N7        30.07S
LYNCHBURG      CLOUDY    69  66  90 NE7       29.96S
DANVILLE       CLOUDY    70  67  90 NE8       29.93R
MARTINSVILLE   CLOUDY    75  66  74 NE5       29.96R
ROANOKE        MOCLDY    71  66  84 NE6       29.98R
BLACKSBURG     CLOUDY    70  70 100 W3          N/A  FOG
DUBLIN*        CLOUDY    70  67  91 N3        30.01R
MARION*        CLOUDY    69  65  85 NW5       30.05R
HILLSVILLE*    MOCLDY    69  63  81 NW10      30.02R
RICHLANDS*     FOG       65  64  94 NW9       30.05S VSB<1/4
WISE*          FOG       61  61 100 NW6       30.08S VSB 1/4
ABINGDON*      PTCLDY    69  65  86 N10G18    30.01S
$$

MDZ021>025-VAZ099-100-250100-
SOUTHERN MARYLAND AND THE DELMARVA PENINSULA

CITY           SKY/WX    TMP DP  RH WIND       PRES   REMARKS
PATUXENT RIVER LGT RAIN  70  67  90 CALM      29.87F
BAY BRIDGE APT   N/A     77  61  57 N6        29.89R
LEONARDTOWN    CLOUDY    68  64  88 SW3       29.92R
DOVER          CLOUDY    76  62  60 W6        29.87R
GEORGETOWN     CLOUDY    75  67  76 S9        29.89R
EASTON         CLOUDY    75  68  78 CALM      29.93R
CAMBRIDGE      CLOUDY    73  68  83 CALM      29.89R
SALISBURY      NOT AVBL
OCEAN CITY     LGT RAIN  73  68  84 CALM      29.89R
WALLOPS ISLAND LGT RAIN  75  70  84 N3        29.90R
ACCOMACK*      DRIZZLE   73  70  88 N3        29.88S
$$

NCZ012>017-030>032-250100-
EASTERN NORTH CAROLINA

CITY           SKY/WX    TMP DP  RH WIND       PRES   REMARKS
ELIZABETH CITY CLOUDY    76  70  82 S5        29.87R
AHOSKIE*       CLOUDY    76  71  85 CALM      29.90R
EDENTON*       CLOUDY    76  71  84 S8        29.87R
CURRITUCK*     CLOUDY    77  67  72 CALM      29.88R
KILL DEVIL HLS CLOUDY    74  71  90 CALM      29.87R
MANTEO         NOT AVBL
CAPE HATTERAS  CLOUDY    75  73  93 W10G18    29.90R
GOLDSBORO      LGT RAIN  73  73 100 S5        29.87R
WASHINGTON     CLOUDY    75  73  94 SE5       29.88R
GREENVILLE     LGT RAIN  75  73  94 SW6       29.91R
NEW BERN       LGT RAIN  75  72  88 SW6       29.90R
WILMINGTON     PTCLDY    76  73  91 NE5       29.89R
$$

VAZ048-250100-
ELSEWHERE

CITY           SKY/WX    TMP DP  RH WIND       PRES   REMARKS
HARRISBURG PA  MOCLDY    75  51  43 N7        29.92R
BALTIMORE      CLOUDY    75  59  57 NW3       29.89S
ANNAPOLIS      CLOUDY    77  61  57 N7        29.89S
ANDREWS AFB    CLOUDY    74  60  61 N9        29.90R
WILMINGTON DE  CLOUDY    76  57  51 N8        29.89R
PHILADELPHIA   CLOUDY    79  53  40 NW15      29.89R
WILDWOOD NJ*   CLOUDY    75  61  60 N3        29.88S
ATLANTIC CITY  PTCLDY    73  67  81 SE6       29.87R
HENDERSON NC   HVY RAIN  68  65  92 CALM      29.94R
GREENSBORO     TSTM      72  69  90 NE5       29.93R
ROCKY MOUNT    LGT RAIN  75  73  93 N18G30    29.94R
FAYETTEVILLE   PTCLDY    86  71  60 SW5       29.85R
CHARLOTTE      LGT RAIN  74  69  85 NE7G22    29.93R
$$

VAZ100-250100-
MARINE

STATION/POSITION TIME  TEMP    WIND        PRES    WAVE   SWELL
                       AIR SEA DIR/SP/G            HT/PER HT/PER
                 (UTC) (F)     (DEG/KT/KT) (MB)    (FT/S) (FT/S)
44066 TX TWR #4  0000   74 74  320/  8/  8 1010.6R   3/ 8   2/ 8
CAPE MAY NJ      0000   75 79  310/  5/  6 1011.0S
LEWES DE         0000   75 74  320/  6/  8 1011.3R
15NM E FENWICK I 0000   76 76              1011.8R   2/ 6
OCEAN-CITY-INLET 0000   74 71  310/  2/  2 1011.5R
WACHAPREAGUE VA  0000   74 81  340/  1/  1 1011.7F
THOMAS POINT MD  0000   77 80  350/ 10/ 12 1012.5R
GOOSES REEF MD   0000   76     310/  2/  4 1012.6S
COVE POINT MD    0000   72     260/  3/  4 1011.8F
SOLOMONS ISLAND  0000      81                N/A
BISHOPS HEAD MD  0000   73 80   CALM  /  2 1011.7S
PINEY POINT MD   0000           80/  5/  5   N/A
POTOMAC MD       0000   73      20/  4/  6 1011.5S
CAMBRIDGE MD     0000   76 80  280/  3/  4 1011.8R
LEWISETTA VA     0000   73 79   80/  8/ 11 1011.4F
RAPPAHANNOCK LGT 0000          350/ 14/ 16 1012.6R
STINGRAY PT      0000   74     360/ 14/ 16 1012.9S
YORK RVR RNG VA  0000   74      30/ 13/ 16 1011.5R
YORKTOWN VA      0000   72 81   40/ 10/ 11 1011.9F
JAMESTOWN VA     0000   70      80/  6/  8   N/A
DOMINION TERM VA 0000   72     360/ 12/ 17 1012.4R
KIPTOPEKE VA     0000      82   10/  3/  6   N/A
CHES BAY BRIDGE  0000   75 78   50/ 15/ 16 1011.1R
CAPE HENRY VA    0000   75      60/ 12/ 12 1010.5R
WILLOUBY STN VA  0000          360/ 17/ 19 1011.5R
S CRANEY ISL VA  0000          350/ 22/ 26 1011.6R
CAPE HENRY BUOY  0000      78                N/A     2/ 6
1ST LANDING BUOY 0000   76      70/ 12/ 14 1011.3S
CAPE CHARLES BUO 0000      77                N/A     2/ 6
OFFSHORE WE BUOY 0000      78                N/A     2/ 6
64NM E OF VA BCH 0000   76 78   30/  4/  6 1011.2R   3/ 7   3/ 7
DUCK PIER NC     0000   76 75  130/  5/  5 1010.6S
44056 DUCK FRF   0000                        N/A     2/ 4
OREGON INLET NC  0000   77 83  200/  4/  5 1012.0R
HATTERAS NC      0000   75 82  230/  9/ 16 1012.7R
DIAMOND SHLS NC  0000          VRB 17/ 19  1011.7R   3/ 7   2/ 7
CAPE LOOKOUT NC  2300   73     180/  5/  7 1012.5R
$$



USA.gov is the U.S. government's official web portal to all federal, state and local government web resources and services.